Powrót do katalogu

STARLINK-31453

AktywnyŁącznośćVLEO
NORAD 59522·PAYLOAD·🇺🇸 United States

Wystrzelony Apr 17, 2024 z Cape Canaveral Space Force Station

Loading…

Następne Przeloty (najbliższe 24 godziny)

TLE

ŚwieżeSource: CelesTrak SupGP

Epoka: Sep 14, 2026, 21:40 UTC

1 59522C 24073M   26257.90326389 -.00014536  00000+0 -52644-3 0  2572
2 59522  43.0017 311.6657 0001843 272.7706 151.0221 15.27588938    15

Śledź STARLINK-31453 w czasie rzeczywistym z AllMySat

Download on the App Store